KF6ILA Weather Reports


time (UTC)temp
F
wind
direction
speed
knots
gust
knots
rain 1hr
in
rain 24hr
in
rain mn
in
humidity
%
barometer
mb
20260508060836 62 261 9.6 13.9 0.00 0.00 0.00 51 1016.2
20260508055841 61 247 10.4 15.6 0.00 0.00 0.00 51 1016.3
20260508054847 61 252 9.6 15.6 0.00 0.00 0.00 52 1016.3
20260508053853 61 246 11.3 15.6 0.00 0.00 0.00 51 1016.2
20260508051408 62 244 11.3 15.6 0.00 0.00 0.00 50 1016.3
20260508050911 62 248 12.2 15.6 0.00 0.00 0.00 50 1016.4
20260508050414 62 250 12.2 15.6 0.00 0.00 0.00 50 1016.4
20260508045917 61 249 13.0 15.6 0.00 0.00 0.00 50 1016.3
20260508045420 62 249 11.3 15.6 0.00 0.00 0.00 50 1016.4
20260508044923 62 251 9.6 15.6 0.00 0.00 0.00 51 1016.5
20260508044426 62 247 10.4 16.5 0.00 0.00 0.00 49 1016.5
20260508043432 62 250 11.3 18.2 0.00 0.00 0.00 50 1016.5
20260508042935 61 249 13.9 18.2 0.00 0.00 0.00 51 1016.4
20260508035953 62 253 10.4 16.5 0.00 0.00 0.00 54 1015.8
20260508035457 62 255 12.2 17.4 0.00 0.00 0.00 55 1015.9
20260508034005 62 269 10.4 18.2 0.00 0.00 0.00 56 1015.6
20260508032017 61 263 12.2 18.2 0.00 0.00 0.00 60 1015.3
20260508031023 61 262 9.6 14.8 0.00 0.00 0.00 63 1015.3
20260508030526 61 256 8.7 14.8 0.00 0.00 0.00 64 1015.2
20260508025532 62 261 9.6 14.8 0.00 0.00 0.00 62 1015.1
20260508024538 62 265 8.7 15.6 0.00 0.00 0.00 65 1015.0
20260508024041 62 258 8.7 15.6 0.00 0.00 0.00 66 1015.0
20260508023047 63 258 10.4 18.2 0.00 0.00 0.00 65 1015.0
20260508022053 63 259 11.3 16.5 0.00 0.00 0.00 64 1014.9
20260508015608 65 261 12.2 18.2 0.00 0.00 0.00 64 1014.8
20260508015111 65 258 9.6 18.2 0.00 0.00 0.00 68 1014.9
20260508014614 66 255 12.2 17.4 0.00 0.00 0.00 68 1014.9
20260508014117 66 262 10.4 16.5 0.00 0.00 0.00 63 1015.0
20260508012626 67 260 10.4 16.5 0.00 0.00 0.00 66 1015.0
20260508012129 67 275 11.3 15.6 0.00 0.00 0.00 63 1014.9
20260508010141 68 276 10.4 15.6 0.00 0.00 0.00 65 1015.1
20260508004650 69 272 12.2 17.4 0.00 0.00 0.00 61 1015.0
20260508004153 70 260 12.2 17.4 0.00 0.00 0.00 61 1015.1
20260508001708 70 284 7.8 17.4 0.00 0.00 0.00 57 1015.0
20260507234726 72 268 10.4 17.4 0.00 0.00 0.00 51 1015.3
20260507230750 73 275 10.4 15.6 0.00 0.00 0.00 52 2015.3
20260507223808 73 285 11.3 17.4 0.00 0.00 0.00 51 1015.3
20260507223311 73 265 8.7 13.9 0.00 0.00 0.00 51 1015.5
20260507221820 73 277 7.8 16.5 0.00 0.00 0.00 52 1015.5
20260507220329 73 282 9.6 15.6 0.00 0.00 0.00 50 1015.9
20260507215832 73 277 8.7 14.8 0.00 0.00 0.00 50 1015.9
20260507212850 73 270 8.7 17.4 0.00 0.00 0.00 50 1016.2
20260507204914 74 280 9.6 13.9 0.00 0.00 0.00 47 1015.8
20260507204417 74 264 7.8 13.9 0.00 0.00 0.00 45 1015.8
20260507194453 80 218 3.5 11.3 0.00 0.00 0.00 27 1016.4
20260507193956 79 116 3.5 12.2 0.00 0.00 0.00 31 1016.4
20260507193459 79 96 5.2 13.0 0.00 0.00 0.00 27 1016.6
20260507193002 80 91 1.7 13.0 0.00 0.00 0.00 24 1016.6
20260507192506 80 116 5.2 17.4 0.00 0.00 0.00 25 1016.6
20260507192008 80 136 6.1 17.4 0.00 0.00 0.00 28 1016.5
20260507191512 80 111 7.8 18.2 0.00 0.00 0.00 28 1016.5
20260507191014 80 142 6.1 18.2 0.00 0.00 0.00 27 1016.6
20260507190517 80 116 8.7 15.6 0.00 0.00 0.00 29 1016.7
20260507190020 80 103 3.5 16.5 0.00 0.00 0.00 28 1016.8
20260507185525 80 121 11.3 16.5 0.00 0.00 0.00 27 1016.8
20260507185026 80 103 8.7 15.6 0.00 0.00 0.00 31 1016.8
20260507184530 79 113 6.1 13.0 0.00 0.00 0.00 28 1016.8
20260507184032 79 128 7.8 13.0 0.00 0.00 0.00 30 1016.8
20260507183536 78 103 7.8 16.5 0.00 0.00 0.00 32 1017.0
20260507183038 79 69 7.0 18.2 0.00 0.00 0.00 30 1017.0
20260507182542 79 105 11.3 18.2 0.00 0.00 0.00 30 1017.1
20260507182044 79 109 10.4 13.9 0.00 0.00 0.00 31 1017.3
20260507181548 79 102 7.0 13.0 0.00 0.00 0.00 30 1017.3
20260507181051 78 97 8.7 13.9 0.00 0.00 0.00 30 1017.3
20260507180554 78 86 5.2 13.9 0.00 0.00 0.00 32 1017.3
20260507180056 78 97 6.1 13.0 0.00 0.00 0.00 32 1017.4
20260507175559 78 41 2.6 15.6 0.00 0.00 0.00 29 1017.4
20260507175102 77 92 9.6 18.2 0.00 0.00 0.00 30 1017.5
20260507174605 77 102 12.2 18.2 0.00 0.00 0.00 30 1016.6
20260507174108 77 75 6.1 20.0 0.00 0.00 0.00 31 1016.6
20260507173611 77 83 9.6 20.0 0.00 0.00 0.00 31 1016.6
20260507173114 77 59 7.8 15.6 0.00 0.00 0.00 30 1016.6
20260507172617 77 95 7.0 20.9 0.00 0.00 0.00 33 1016.7
20260507172120 77 109 11.3 20.9 0.00 0.00 0.00 30 1016.7
20260507171623 77 101 5.2 18.2 0.00 0.00 0.00 32 1016.7
20260507171126 77 91 10.4 18.2 0.00 0.00 0.00 32 1016.7
20260507170629 77 76 4.3 13.0 0.00 0.00 0.00 33 1016.7
20260507170132 77 95 8.7 13.0 0.00 0.00 0.00 32 1016.8
20260507165636 76 100 7.0 13.0 0.00 0.00 0.00 33 1016.8
20260507165139 76 94 6.1 10.4 0.00 0.00 0.00 33 1016.8
20260507164641 76 81 6.1 10.4 0.00 0.00 0.00 34 1016.9
20260507164144 76 81 5.2 11.3 0.00 0.00 0.00 34 1016.9
20260507163648 76 87 6.1 11.3 0.00 0.00 0.00 33 1017.0
20260507163150 76 94 5.2 9.6 0.00 0.00 0.00 34 1016.9
20260507162653 76 91 4.3 9.6 0.00 0.00 0.00 33 1017.1
20260507162156 75 73 2.6 6.1 0.00 0.00 0.00 35 1017.1
20260507161700 75 80 3.5 10.4 0.00 0.00 0.00 34 1017.0
20260507161202 75 96 5.2 10.4 0.00 0.00 0.00 36 1017.1
20260507160705 75 66 5.2 7.8 0.00 0.00 0.00 34 1017.1
20260507154221 73 100 2.6 7.0 0.00 0.00 0.00 38 1017.1
20260507153227 72 96 0.9 6.1 0.00 0.00 0.00 39 1017.2
20260507152233 72 58 3.5 5.2 0.00 0.00 0.00 37 1017.1
20260507151736 72 56 3.5 6.1 0.00 0.00 0.00 37 1017.2
20260507150742 71 61 3.5 5.2 0.00 0.00 0.00 41 1016.3
20260507150244 71 51 2.6 4.3 0.00 0.00 0.00 40 1016.3
20260507145747 70 79 0.9 2.6 0.00 0.00 0.00 43 1016.3
20260507145250 69 0 0.0 4.3 0.00 0.00 0.00 42 1016.3
20260507144753 67 60 1.7 4.3 0.00 0.00 0.00 48 1016.3
20260507134830 59 0 0.0 0.9 0.00 0.00 0.00 47 1016.4
20260507134333 58 0 0.0 0.9 0.00 0.00 0.00 46 1016.5
20260507133339 57 0 0.0 1.7 0.00 0.00 0.00 46 1016.4
20260507131351 56 0 0.0 1.7 0.00 0.00 0.00 48 1016.2
20260507125403 56 0 0.0 2.6 0.00 0.00 0.00 51 1016.0
20260507124906 56 227 1.7 3.5 0.00 0.00 0.00 50 1016.0
20260507123912 57 236 1.7 3.5 0.00 0.00 0.00 49 1016.0
20260507122918 57 0 0.0 0.0 0.00 0.00 0.00 49 1015.9
20260507121427 58 0 0.0 0.0 0.00 0.00 0.00 48 1015.9
20260507115439 58 0 0.0 0.0 0.00 0.00 0.00 48 1016.0
20260507114445 58 0 0.0 0.0 0.00 0.00 0.00 47 1015.2
20260507113948 59 0 0.0 0.0 0.00 0.00 0.00 47 1015.2
20260507112457 58 0 0.0 2.6 0.00 0.00 0.00 49 1015.3
20260507112000 58 311 0.9 1.7 0.00 0.00 0.00 49 1015.4
20260507111006 58 311 0.9 1.7 0.00 0.00 0.00 50 1015.3
20260507110012 57 304 0.9 3.5 0.00 0.00 0.00 51 1015.4
20260507105018 57 253 2.6 4.3 0.00 0.00 0.00 52 1015.4
20260507104521 57 0 0.0 2.6 0.00 0.00 0.00 51 1015.4
20260507103030 56 0 0.0 0.0 0.00 0.00 0.00 53 1015.4
20260507102533 56 0 0.0 0.0 0.00 0.00 0.00 53 1015.5
20260507102036 56 0 0.0 0.9 0.00 0.00 0.00 54 1015.5
20260507101042 56 0 0.0 1.7 0.00 0.00 0.00 55 1015.6
20260507100048 56 0 0.0 0.9 0.00 0.00 0.00 56 1015.6
20260507095551 56 0 0.0 1.7 0.00 0.00 0.00 55 1015.7
20260507093603 55 0 0.0 2.6 0.00 0.00 0.00 60 1015.9
20260507093106 55 0 0.0 2.6 0.00 0.00 0.00 61 1016.1
20260507092609 55 0 0.0 3.5 0.00 0.00 0.00 61 1016.0
20260507091118 56 323 2.6 5.2 0.00 0.00 0.00 61 1016.1
20260507090621 56 294 2.6 5.2 0.00 0.00 0.00 61 1016.2
20260507085627 56 291 2.6 4.3 0.00 0.00 0.00 60 1016.3
20260507085130 56 294 0.9 4.3 0.00 0.00 0.00 60 1016.4
20260507084633 57 296 1.7 5.2 0.00 0.00 0.00 60 1016.5
20260507084136 57 293 3.5 5.2 0.00 0.00 0.00 60 1016.5
20260507083639 57 303 2.6 6.1 0.00 0.00 0.00 60 1016.5
20260507083142 57 298 3.5 6.1 0.00 0.00 0.00 59 1016.5
20260507081651 57 292 3.5 6.1 0.00 0.00 0.00 58 1016.5
20260507081154 57 284 4.3 6.1 0.00 0.00 0.00 58 1016.6
20260507075703 57 288 3.5 7.8 0.00 0.00 0.00 59 1016.7
20260507075206 57 281 4.3 7.8 0.00 0.00 0.00 59 1016.7
20260507073715 57 298 3.5 7.8 0.00 0.00 0.00 61 1016.7
20260507072721 57 295 3.5 7.0 0.00 0.00 0.00 62 1016.6
20260507071727 57 287 4.3 7.0 0.00 0.00 0.00 63 1016.9
20260507070733 57 284 5.2 7.8 0.00 0.00 0.00 63 1016.9
20260507070236 57 288 5.2 8.7 0.00 0.00 0.00 64 1017.0
20260507065739 57 286 7.0 8.7 0.00 0.00 0.00 64 1016.9
20260507065242 57 294 4.3 8.7 0.00 0.00 0.00 64 1017.0
20260507064817 57 290 6.1 8.7 0.00 0.00 0.00 64 1017.0
20260507064745 57 290 6.1 8.7 0.00 0.00 0.00 64 1017.0
20260507064248 57 290 6.1 8.7 0.00 0.00 0.00 65 1017.1
20260507063751 57 284 5.2 7.8 0.00 0.00 0.00 65 1017.1
20260507063254 57 282 5.2 7.8 0.00 0.00 0.00 65 1016.4
20260507062757 57 282 5.2 7.8 0.00 0.00 0.00 65 1016.4
20260507062300 57 286 5.2 7.8 0.00 0.00 0.00 65 1016.3
20260507061803 57 288 5.2 7.8 0.00 0.00 0.00 64 1016.3